Regional Weather Roundup
Issued by NWS New Orleans/Baton Rouge, LA

Home | Current Version | Previous Version | Text Only | Print | Product List | Glossary On
Versions: 1 2 3 4 5 6 7 8 9 10 11 12 13 14 15 16 17 18 19 20 21 22 23 24 25 26 27 28 29 30 31 32 33 34 35 36 37 38 39 40 41 42 43 44 45 46 47 48 49 50
000
ASUS44 KLIX 260206
RWRLIX
NEW ORLEANS REGIONAL WEATHER ROUNDUP
NATIONAL WEATHER SERVICE NEW ORLEANS LA
900 PM CDT WED APR 25 2018

NOTE: "FAIR" INDICATES FEW OR NO CLOUDS BELOW 12,000 FEET WITH NO
      SIGNIFICANT WEATHER AND/OR OBSTRUCTIONS TO VISIBILITY.
      SKY/WX - SKY CONDITION AND SIGNIFICANT WEATHER.
      TMP - AIR TEMPERATURE.     DP    - DEWPOINT TEMPERATURE.
      RH  - RELATIVE HUMIDITY.   PRES  - PRESSURE.
      HI  - HEAT INDEX.          WCI   - WIND CHILL INDEX.

*  THESE STATIONS ARE NOT NWS OR FAA STATIONS AND ARE NOT UNDER
   NWS QUALITY CONTROL.

LAZ038-040-048-061>063-065>067-069-260300-
SOUTHEAST LOUISIANA

CITY           SKY/WX    TMP DP  RH WIND       PRES   REMARKS
N.O. INTL ARPT FAIR      70  62  76 S6        29.95R
N.O. LAKEFRONT MOCLDY    76  56  49 CALM      29.96R
N.O. DOWNTOWN* FAIR      79  59  50 CALM      29.97R
RESERVE*       FAIR      73  59  62 W8        29.97R
SLIDELL        FAIR      67  60  78 CALM      29.95S
BATON ROUGE    FAIR      73  60  63 SW10      29.94S
BOOTHVILLE     FAIR      73  65  75 W7        29.98R
BELLE CHASSE   FAIR      68  63  84 SW3       29.96R
BOGALUSA*      FAIR      66  60  78 CALM      29.95F
GALLIANO*      FAIR      70  59  66 W3        29.97S
NEW ROADS*     FAIR      72  60  67 S6        29.95R
GONZALES*      FAIR      71  61  70 CALM      29.96R
HAMMOND*       FAIR      70  59  68 CALM      29.95S
HOUMA*         FAIR      69  63  82 W3        29.97S
PORT FOURCHON* CLEAR     73  61  64 W9        29.99R

$$

MSZ070-080>082-260300-
SOUTHERN MISSISSIPPI

CITY           SKY/WX    TMP DP  RH WIND       PRES   REMARKS
MCCOMB         FAIR      67  58  72 CALM      29.95R
GULFPORT       FAIR      68  57  68 CALM      29.94S
BILOXI         FAIR      70  58  64 CALM      29.95R
PASCAGOULA     FAIR      64  62  93 CALM      29.96R
STENNIS ARPT*  PTCLDY    63  59  88 CALM      29.96R

$$

COASTAL OBSERVATIONS
LAKE AND NEARSHORE STATIONS

STATION/POSITION TIME  SKY/WX   TEMP    WIND        PRES    WAVE
                                AIR SEA DIR/SP/G            HT/PER
                 (UTC)          (F)     (DEG/KT/KT) (MB)    (FT/S)
WAVELAND YACHT   0148            73 74   30/  1/  2 1014.4
GRAND ISLE       0148            74 73  260/  8/ 15 1014.7
SOUTHWEST PASS   0148            70 60  280/ 12/ 14 1015.7
NEW CANAL        0148            77 75  220/  2/  2 1014.2
SHELL BEACH      0148            75 78  290/  3/  4 1014.5

OFFSHORE STATIONS

STATION/POSITION TIME  SKY/WX   TEMP    WIND        PRES    WAVE
                                AIR SEA DIR/SP/G            HT/PER
                 (UTC)          (F)     (DEG/KT/KT) (MB)    (FT/S)
64 S DAUPHIN ISL 0150               74  270/ 10/ 12 1014.9    1

$$




USA.gov is the U.S. government's official web portal to all federal, state and local government web resources and services.